Montpelier, VT

11:06 PM EDT on April 27, 2017 (GMT -0400)
Knapp State

Weather History for KMPV - May, 2014

Change the Weather History Date:

Sunday, May 18, 2014

  Actual Average Record
Temperature  
Mean Temperature 49 °F 54 °F  
Max Temperature 61 °F 66 °F 90 °F (1962)
Min Temperature 36 °F 43 °F 28 °F (1983)
Degree Days  
Heating Degree Days 16 11  
Month to date heating degree days 240  
Since 1 July heating degree days 7944  
Cooling Degree Days 0 0  
Month to date cooling degree days 1 0  
Year to date cooling degree days 1 1  
Moisture  
Dew Point 33 °F    
Average Humidity 59    
Maximum Humidity 89    
Minimum Humidity 29    
Precipitation  
Precipitation 0.00 in 0.11 in 1.44 in (1976)
Month to date precipitation 2.06 1.88  
Year to date precipitation 11.52 11.42  
Sea Level Pressure  
Sea Level Pressure 30.18 in    
Wind  
Wind Speed 7 mph (NW)    
Max Wind Speed 17 mph    
Max Gust Speed 25 mph    
Visibility 10 miles    
Events      
T = Trace of Precipitation, MM = Missing Value Source: NWS Daily Summary

Daily Weather History Graph

Daily Weather History Graph

Search for Another Location

Airport or City:

Trip Planner

Search our weather history database for the weather conditions in past years. The results will help you decide how hot, cold, wet, or windy it might be!

Date:

Astronomy

May. 18, 2014 Rise Set
Actual Time 5:20 AM EDT 8:13 PM EDT
Civil Twilight 4:46 AM EDT 8:47 PM EDT
Nautical Twilight 4:03 AM EDT 9:30 PM EDT
Astronomical Twilight 3:13 AM EDT 10:21 PM EDT
Moon 11:57 PM EDT (5/18) 9:07 AM EDT (5/18)
Length of Visible Light 16h 00m
Length of Day
14h 53m
Waning Gibbous, 81% of the Moon is Illuminated
May 18
Waning Gibbous
May 21
Last Quarter
May 28
New
Jun 5
First Quarter
Jun 13
Full

Hourly Weather History & Observations

Time (EDT) Temp. Windchill Dew Point Humidity Pressure Visibility Wind Dir Wind Speed Gust Speed Precip Events Conditions
12:49 AM 46.4 °F - 41.0 °F 81% 30.14 in 10.0 mi Calm Calm - N/A   Mostly Cloudy
12:51 AM 45.0 °F - 41.0 °F 86% 30.16 in 10.0 mi Calm Calm - N/A   Mostly Cloudy
1:04 AM 45.0 °F - 39.9 °F 82% 30.15 in 10.0 mi Calm Calm - N/A   Scattered Clouds
1:51 AM 43.0 °F 41.3 °F 37.9 °F 82% 30.17 in 10.0 mi WNW 3.5 mph - N/A   Clear
2:51 AM 41.0 °F - 36.0 °F 82% 30.17 in 10.0 mi Calm Calm - N/A   Clear
3:51 AM 41.0 °F - 33.1 °F 73% 30.19 in 10.0 mi Calm Calm - N/A   Clear
4:51 AM 37.4 °F 34.9 °F 33.8 °F 87% 30.18 in 10.0 mi WSW 3.5 mph - N/A   Clear
5:51 AM 37.0 °F - 33.1 °F 86% 30.22 in 10.0 mi Calm Calm - N/A   Clear
6:51 AM 43.0 °F 41.3 °F 36.0 °F 76% 30.23 in 10.0 mi Variable 3.5 mph - N/A   Clear
7:51 AM 46.4 °F 42.9 °F 35.6 °F 66% 30.21 in 10.0 mi NW 6.9 mph - N/A   Clear
8:51 AM 50.0 °F - 33.1 °F 52% 30.23 in 10.0 mi NW 8.1 mph - N/A   Clear
9:51 AM 53.1 °F - 32.0 °F 45% 30.22 in 10.0 mi NNW 11.5 mph - N/A   Clear
10:51 AM 55.4 °F - 33.8 °F 44% 30.19 in 10.0 mi WNW 12.7 mph - N/A   Clear
11:51 AM 55.9 °F - 33.1 °F 42% 30.20 in 10.0 mi WNW 11.5 mph 17.3 mph N/A   Clear
12:51 PM 57.9 °F - 30.9 °F 36% 30.18 in 10.0 mi NW 11.5 mph 18.4 mph N/A   Clear
1:51 PM 59.0 °F - 28.0 °F 31% 30.17 in 10.0 mi NW 13.8 mph 21.9 mph N/A   Clear
2:51 PM 59.0 °F - 28.9 °F 32% 30.16 in 10.0 mi WNW 12.7 mph 21.9 mph N/A   Clear
3:51 PM 60.1 °F - 28.9 °F 31% 30.14 in 10.0 mi NW 10.4 mph - N/A   Clear
4:51 PM 57.9 °F - 30.0 °F 35% 30.16 in 10.0 mi NW 11.5 mph - N/A   Scattered Clouds
5:51 PM 57.0 °F - 30.0 °F 36% 30.16 in 10.0 mi NW 10.4 mph 18.4 mph N/A   Partly Cloudy
6:51 PM 57.0 °F - 30.0 °F 36% 30.16 in 10.0 mi NNW 11.5 mph 18.4 mph N/A   Overcast
7:51 PM 53.1 °F - 30.9 °F 43% 30.17 in 10.0 mi NNW 6.9 mph - N/A   Partly Cloudy
8:51 PM 50.0 °F - 30.9 °F 48% 30.18 in 10.0 mi NW 5.8 mph - N/A   Clear
9:51 PM 46.0 °F 43.9 °F 32.0 °F 58% 30.19 in 10.0 mi West 4.6 mph - N/A   Clear
10:51 PM 46.9 °F - 30.9 °F 54% 30.19 in 10.0 mi WNW 5.8 mph - N/A   Clear
11:51 PM 44.1 °F 42.5 °F 30.9 °F 60% 30.19 in 10.0 mi WNW 3.5 mph - N/A   Clear